Location: Franzen
(48.6167°N, 15.3833°E)
Time: 06:48:01
(UTC+00:00)

ARIANE 5 R/B - Pass Details

Date: 04 August 2021
Orbit: 620 x 656 km, 98.1° (Epoch: 11 September)

Event Time Altitude Azimuth Distance (km) Brightness Sun altitude
Exits shadow 21:08:37 19° 213° (SSW) 1,528 4.3 -19.5°
Maximum altitude 21:11:04 32° 264° (W) 1,107 4.0 -19.7°
Drops below altitude 10° 21:15:03 10° 328° (NNW) 2,036 6.4 -20.0°
Sets 21:17:27 0° 338° (NNW) 2,943 7.6 -20.2°
